Wetterdaten: Woche 06.12.10 - 12.12.10 (KW49)
Datum Zeit Temperatur Luftfeuchte Luftdruck Niederschlag Windrichtung Sonnenschein Solar Wind
06.12.2010 00:00 0,5 C 97 % 1005,0 hPa 2,0 l/m SW 0,00 h 0 W/m 7,5 km/h (2 Bft)
06.12.2010 01:00 0,5 C 97 % 1004,3 hPa 2,4 l/m SW 0,00 h 0 W/m 6,8 km/h (2 Bft)
06.12.2010 02:00 0,5 C 97 % 1003,9 hPa 2,2 l/m S-SW 0,00 h 0 W/m 3,7 km/h (1 Bft)
06.12.2010 03:00 0,5 C 98 % 1003,2 hPa 2,6 l/m S-SW 0,00 h 0 W/m 4,4 km/h (1 Bft)
06.12.2010 04:00 0,5 C 98 % 1002,4 hPa 1,6 l/m N 0,00 h 0 W/m 0,8 km/h (0 Bft)
06.12.2010 05:00 0,6 C 98 % 1001,2 hPa 1,4 l/m N 0,00 h 0 W/m 0,7 km/h (0 Bft)
06.12.2010 06:00 0,6 C 98 % 1000,3 hPa 1,4 l/m N 0,00 h 0 W/m 0,0 km/h (0 Bft)
06.12.2010 07:00 0,5 C 98 % 999,6 hPa 2,4 l/m N 0,00 h 0 W/m 0,0 km/h (0 Bft)
06.12.2010 08:00 0,5 C 98 % 999,0 hPa 2,0 l/m N 0,00 h 11 W/m 0,0 km/h (0 Bft)
06.12.2010 09:00 0,7 C 98 % 998,9 hPa 2,2 l/m N 0,00 h 26 W/m 0,0 km/h (0 Bft)
06.12.2010 10:00 1,1 C 98 % 998,9 hPa 2,8 l/m S 0,00 h 39 W/m 0,7 km/h (0 Bft)
06.12.2010 11:00 1,5 C 98 % 998,6 hPa 2,6 l/m N 0,00 h 65 W/m 1,6 km/h (1 Bft)
06.12.2010 12:00 1,9 C 98 % 998,0 hPa 1,8 l/m N 0,00 h 57 W/m 1,5 km/h (1 Bft)
06.12.2010 13:00 2,2 C 98 % 997,4 hPa 1,8 l/m N 0,00 h 55 W/m 0,4 km/h (0 Bft)
06.12.2010 14:00 2,2 C 98 % 996,9 hPa 1,6 l/m N 0,00 h 31 W/m 1,2 km/h (1 Bft)
06.12.2010 15:00 1,9 C 98 % 997,1 hPa 3,8 l/m N 0,00 h 11 W/m 0,9 km/h (0 Bft)
06.12.2010 16:00 1,6 C 97 % 997,1 hPa 3,0 l/m N 0,00 h 0 W/m 0,5 km/h (0 Bft)
06.12.2010 17:00 1,3 C 97 % 996,9 hPa 2,2 l/m N 0,00 h 0 W/m 0,1 km/h (0 Bft)
06.12.2010 18:00 1,3 C 98 % 997,2 hPa 3,8 l/m N 0,00 h 0 W/m 0,8 km/h (0 Bft)
06.12.2010 19:00 1,3 C 98 % 997,0 hPa 5,4 l/m SW 0,00 h 0 W/m 5,2 km/h (1 Bft)
06.12.2010 20:00 2,3 C 99 % 997,1 hPa 2,0 l/m SW 0,00 h 0 W/m 10,2 km/h (2 Bft)
06.12.2010 21:00 2,9 C 99 % 997,0 hPa 1,4 l/m S-SW 0,00 h 0 W/m 6,2 km/h (2 Bft)
06.12.2010 22:00 2,2 C 98 % 997,2 hPa 2,2 l/m N 0,00 h 0 W/m 0,8 km/h (0 Bft)
06.12.2010 23:00 1,6 C 98 % 997,4 hPa 1,8 l/m N 0,00 h 0 W/m 0,5 km/h (0 Bft)
07.12.2010 00:00 1,5 C 98 % 997,4 hPa 1,6 l/m SW 0,00 h 0 W/m 3,9 km/h (1 Bft)
07.12.2010 01:00 3,2 C 99 % 997,6 hPa 1,2 l/m SW 0,00 h 0 W/m 12,5 km/h (3 Bft)
07.12.2010 02:00 3,0 C 99 % 998,0 hPa 0,0 l/m SW 0,00 h 0 W/m 13,2 km/h (3 Bft)
07.12.2010 03:00 3,0 C 99 % 998,5 hPa 0,2 l/m SW 0,00 h 0 W/m 12,9 km/h (3 Bft)
07.12.2010 04:00 4,6 C 100 % 999,0 hPa 0,0 l/m SW 0,00 h 0 W/m 16,9 km/h (3 Bft)
07.12.2010 05:00 4,4 C 99 % 999,5 hPa 0,0 l/m SW 0,00 h 0 W/m 10,5 km/h (2 Bft)
07.12.2010 06:00 4,2 C 99 % 999,8 hPa 0,0 l/m SW 0,00 h 0 W/m 12,5 km/h (3 Bft)
07.12.2010 07:00 4,7 C 100 % 1000,2 hPa 0,0 l/m W-SW 0,00 h 0 W/m 13,2 km/h (3 Bft)
07.12.2010 08:00 4,5 C 99 % 1001,1 hPa 0,0 l/m SW 0,08 h 21 W/m 11,6 km/h (2 Bft)
07.12.2010 09:00 4,6 C 99 % 1001,5 hPa 0,0 l/m SW 0,00 h 38 W/m 13,8 km/h (3 Bft)
07.12.2010 10:00 6,1 C 100 % 1001,9 hPa 0,0 l/m W-SW 0,00 h 58 W/m 16,0 km/h (3 Bft)
07.12.2010 11:00 6,9 C 100 % 1001,7 hPa 0,0 l/m SW 0,08 h 96 W/m 14,4 km/h (3 Bft)
07.12.2010 12:00 7,6 C 94 % 1001,1 hPa 0,0 l/m SW 0,00 h 144 W/m 11,3 km/h (2 Bft)
07.12.2010 13:00 8,4 C 89 % 1000,4 hPa 0,0 l/m W-SW 0,25 h 168 W/m 3,3 km/h (1 Bft)
07.12.2010 14:00 7,6 C 93 % 1000,0 hPa 0,0 l/m N 0,00 h 70 W/m 1,3 km/h (1 Bft)
07.12.2010 15:00 6,7 C 93 % 1000,0 hPa 0,0 l/m O-SO 0,00 h 18 W/m 1,9 km/h (1 Bft)
07.12.2010 16:00 6,1 C 94 % 1000,2 hPa 0,0 l/m N-NW 0,00 h 7 W/m 6,4 km/h (2 Bft)
07.12.2010 17:00 5,6 C 95 % 1000,0 hPa 0,0 l/m N-NW 0,00 h 0 W/m 0,9 km/h (0 Bft)
07.12.2010 18:00 4,8 C 95 % 999,9 hPa 0,0 l/m N 0,00 h 0 W/m 2,7 km/h (1 Bft)
07.12.2010 19:00 4,9 C 97 % 1000,6 hPa 0,2 l/m N-NW 0,00 h 0 W/m 5,3 km/h (1 Bft)
07.12.2010 20:00 4,7 C 97 % 1001,2 hPa 0,8 l/m N-NW 0,00 h 0 W/m 3,5 km/h (1 Bft)
07.12.2010 21:00 4,0 C 97 % 1001,7 hPa 3,6 l/m SW 0,00 h 0 W/m 5,3 km/h (1 Bft)
07.12.2010 22:00 5,4 C 99 % 1002,0 hPa 3,6 l/m S-SW 0,00 h 0 W/m 10,3 km/h (2 Bft)
07.12.2010 23:00 7,0 C 99 % 1002,0 hPa 1,4 l/m SW 0,00 h 0 W/m 12,5 km/h (3 Bft)
08.12.2010 00:00 5,7 C 99 % 1002,1 hPa 0,6 l/m S-SW 0,00 h 0 W/m 5,5 km/h (1 Bft)
08.12.2010 01:00 5,7 C 99 % 1002,5 hPa 1,4 l/m SW 0,00 h 0 W/m 7,4 km/h (2 Bft)
08.12.2010 02:00 5,8 C 99 % 1002,5 hPa 0,6 l/m S-SW 0,00 h 0 W/m 10,1 km/h (2 Bft)
08.12.2010 03:00 6,1 C 99 % 1002,5 hPa 0,2 l/m W-SW 0,00 h 0 W/m 15,2 km/h (3 Bft)
08.12.2010 04:00 6,5 C 99 % 1002,0 hPa 0,0 l/m W-SW 0,00 h 0 W/m 8,2 km/h (2 Bft)
08.12.2010 05:00 5,6 C 99 % 1002,0 hPa 0,2 l/m SO 0,00 h 0 W/m 1,7 km/h (1 Bft)
08.12.2010 06:00 5,1 C 99 % 1002,2 hPa 1,2 l/m N 0,00 h 0 W/m 0,5 km/h (0 Bft)
08.12.2010 07:00 4,9 C 99 % 1001,9 hPa 1,6 l/m SO 0,00 h 0 W/m 1,2 km/h (1 Bft)
08.12.2010 08:00 5,0 C 99 % 1001,5 hPa 0,0 l/m S-SW 0,00 h 14 W/m 5,8 km/h (1 Bft)
08.12.2010 09:00 5,9 C 99 % 1001,3 hPa 0,0 l/m S-SO 0,00 h 58 W/m 3,7 km/h (1 Bft)
08.12.2010 10:00 6,9 C 100 % 1001,1 hPa 0,0 l/m N 0,00 h 85 W/m 0,8 km/h (0 Bft)
08.12.2010 11:00 7,4 C 99 % 1001,0 hPa 0,0 l/m NW 0,00 h 70 W/m 4,0 km/h (1 Bft)
08.12.2010 12:00 8,1 C 99 % 1001,0 hPa 0,2 l/m N-NW 0,08 h 127 W/m 4,0 km/h (1 Bft)
08.12.2010 13:00 8,0 C 98 % 1000,9 hPa 0,0 l/m SW 0,00 h 95 W/m 11,7 km/h (2 Bft)
08.12.2010 14:00 7,7 C 97 % 1000,8 hPa 0,0 l/m SW 0,00 h 41 W/m 9,8 km/h (2 Bft)
08.12.2010 15:00 7,5 C 96 % 1000,7 hPa 0,0 l/m SW 0,00 h 32 W/m 9,1 km/h (2 Bft)
08.12.2010 16:00 6,9 C 96 % 1000,5 hPa 0,0 l/m SW 0,08 h 12 W/m 10,1 km/h (2 Bft)
08.12.2010 17:00 6,6 C 97 % 1000,4 hPa 0,0 l/m SW 0,00 h 0 W/m 10,1 km/h (2 Bft)
08.12.2010 18:00 6,7 C 98 % 999,9 hPa 0,4 l/m SW 0,00 h 0 W/m 12,1 km/h (2 Bft)
08.12.2010 19:00 7,0 C 98 % 1000,3 hPa 0,0 l/m SW 0,00 h 0 W/m 12,4 km/h (3 Bft)
08.12.2010 20:00 7,1 C 98 % 1000,5 hPa 0,2 l/m S-SW 0,00 h 0 W/m 16,9 km/h (3 Bft)
08.12.2010 21:00 9,1 C 96 % 1000,7 hPa 0,0 l/m W-SW 0,00 h 0 W/m 29,5 km/h (5 Bft)
08.12.2010 22:00 10,1 C 92 % 1001,1 hPa 0,8 l/m W-SW 0,00 h 0 W/m 35,4 km/h (5 Bft)
08.12.2010 23:00 8,5 C 92 % 1002,9 hPa 3,6 l/m W-SW 0,00 h 0 W/m 32,2 km/h (5 Bft)
09.12.2010 00:00 3,5 C 89 % 1005,6 hPa 1,4 l/m NW 0,00 h 0 W/m 26,3 km/h (4 Bft)
09.12.2010 01:00 0,5 C 92 % 1008,2 hPa 0,2 l/m N 0,00 h 0 W/m 21,4 km/h (4 Bft)
09.12.2010 02:00 0,1 C 92 % 1010,2 hPa 0,0 l/m N-NW 0,00 h 0 W/m 18,8 km/h (3 Bft)
09.12.2010 03:00 -0,4 C 94 % 1012,3 hPa 0,8 l/m NW 0,00 h 0 W/m 12,5 km/h (3 Bft)
09.12.2010 04:00 -0,8 C 95 % 1014,5 hPa 0,6 l/m NW 0,00 h 0 W/m 8,2 km/h (2 Bft)
09.12.2010 05:00 -0,9 C 96 % 1016,2 hPa 0,8 l/m N-NW 0,00 h 0 W/m 7,8 km/h (2 Bft)
09.12.2010 06:00 -1,0 C 96 % 1017,8 hPa 0,4 l/m N-NW 0,00 h 0 W/m 10,2 km/h (2 Bft)
09.12.2010 07:00 -1,6 C 95 % 1019,3 hPa 0,2 l/m N 0,00 h 0 W/m 4,3 km/h (1 Bft)
09.12.2010 08:00 -2,5 C 93 % 1020,5 hPa 0,0 l/m W-NW 0,00 h 9 W/m 6,2 km/h (2 Bft)
09.12.2010 09:00 -2,3 C 94 % 1021,4 hPa 0,0 l/m W-NW 0,00 h 15 W/m 4,7 km/h (1 Bft)
09.12.2010 10:00 -1,5 C 91 % 1022,1 hPa 0,0 l/m SW 0,00 h 23 W/m 6,4 km/h (2 Bft)
09.12.2010 11:00 -1,2 C 90 % 1022,2 hPa 0,2 l/m SW 0,00 h 65 W/m 11,7 km/h (2 Bft)
09.12.2010 12:00 -0,3 C 89 % 1022,6 hPa 0,0 l/m SW 0,08 h 95 W/m 13,2 km/h (3 Bft)
09.12.2010 13:00 -0,0 C 89 % 1022,9 hPa 0,0 l/m W-SW 0,08 h 48 W/m 13,8 km/h (3 Bft)
09.12.2010 14:00 0,2 C 89 % 1022,9 hPa 0,0 l/m W-SW 0,33 h 96 W/m 14,6 km/h (3 Bft)
09.12.2010 15:00 0,3 C 88 % 1023,5 hPa 0,0 l/m W-SW 0,00 h 34 W/m 16,6 km/h (3 Bft)
09.12.2010 16:00 -0,1 C 88 % 1024,4 hPa 0,0 l/m W-SW 0,00 h 7 W/m 16,5 km/h (3 Bft)
09.12.2010 17:00 -0,6 C 87 % 1025,3 hPa 0,0 l/m W 0,00 h 0 W/m 18,2 km/h (3 Bft)
09.12.2010 18:00 -0,8 C 89 % 1026,0 hPa 0,0 l/m W 0,00 h 0 W/m 17,8 km/h (3 Bft)
09.12.2010 19:00 -0,9 C 92 % 1026,8 hPa 0,0 l/m W-SW 0,00 h 0 W/m 17,7 km/h (3 Bft)
09.12.2010 20:00 -1,1 C 93 % 1027,3 hPa 0,2 l/m W 0,00 h 0 W/m 16,6 km/h (3 Bft)
09.12.2010 21:00 -1,3 C 92 % 1027,7 hPa 0,0 l/m W 0,00 h 0 W/m 16,5 km/h (3 Bft)
09.12.2010 22:00 -1,7 C 91 % 1027,9 hPa 0,0 l/m W 0,00 h 0 W/m 16,5 km/h (3 Bft)
09.12.2010 23:00 -1,6 C 91 % 1028,2 hPa 0,0 l/m W 0,00 h 0 W/m 17,7 km/h (3 Bft)
10.12.2010 00:00 -1,6 C 89 % 1027,9 hPa 0,0 l/m W 0,00 h 0 W/m 21,6 km/h (4 Bft)
10.12.2010 01:00 -1,6 C 87 % 1027,7 hPa 0,0 l/m W-SW 0,00 h 0 W/m 19,6 km/h (3 Bft)
10.12.2010 02:00 -1,6 C 88 % 1027,9 hPa 0,0 l/m W-SW 0,00 h 0 W/m 19,3 km/h (3 Bft)
10.12.2010 03:00 -1,7 C 89 % 1027,5 hPa 0,0 l/m W-SW 0,00 h 0 W/m 22,0 km/h (4 Bft)
10.12.2010 04:00 -1,7 C 90 % 1026,8 hPa 0,0 l/m W 0,00 h 0 W/m 24,1 km/h (4 Bft)
10.12.2010 05:00 -1,5 C 88 % 1026,5 hPa 0,0 l/m W 0,00 h 0 W/m 26,8 km/h (4 Bft)
10.12.2010 06:00 -1,6 C 91 % 1027,3 hPa 0,0 l/m W-SW 0,00 h 0 W/m 19,7 km/h (3 Bft)
10.12.2010 07:00 -1,8 C 93 % 1028,3 hPa 0,2 l/m W 0,00 h 0 W/m 17,0 km/h (3 Bft)
10.12.2010 08:00 -1,7 C 93 % 1029,3 hPa 0,0 l/m W 0,00 h 12 W/m 18,1 km/h (3 Bft)
10.12.2010 09:00 -1,3 C 92 % 1030,0 hPa 0,4 l/m W 0,00 h 36 W/m 20,1 km/h (4 Bft)
10.12.2010 10:00 -1,1 C 92 % 1030,4 hPa 0,2 l/m W-SW 0,00 h 36 W/m 17,8 km/h (3 Bft)
10.12.2010 11:00 -0,7 C 91 % 1030,6 hPa 0,0 l/m W-SW 0,00 h 70 W/m 15,2 km/h (3 Bft)
10.12.2010 12:00 -0,1 C 89 % 1030,9 hPa 0,0 l/m W-SW 0,08 h 115 W/m 16,1 km/h (3 Bft)
10.12.2010 13:00 0,2 C 87 % 1031,1 hPa 0,0 l/m W-SW 0,00 h 97 W/m 14,8 km/h (3 Bft)
10.12.2010 14:00 -0,2 C 89 % 1031,4 hPa 0,0 l/m W-SW 0,00 h 46 W/m 16,1 km/h (3 Bft)
10.12.2010 15:00 -0,5 C 91 % 1031,3 hPa 0,0 l/m W-SW 0,00 h 18 W/m 13,2 km/h (3 Bft)
10.12.2010 16:00 -0,7 C 92 % 1031,4 hPa 0,0 l/m W-SW 0,00 h 8 W/m 13,4 km/h (3 Bft)
10.12.2010 17:00 -0,7 C 93 % 1031,3 hPa 0,0 l/m W-SW 0,00 h 0 W/m 14,6 km/h (3 Bft)
10.12.2010 18:00 -0,6 C 93 % 1031,1 hPa 0,0 l/m W 0,00 h 0 W/m 15,7 km/h (3 Bft)
10.12.2010 19:00 -0,4 C 94 % 1030,8 hPa 0,2 l/m SW 0,00 h 0 W/m 15,3 km/h (3 Bft)
10.12.2010 20:00 -0,4 C 94 % 1030,5 hPa 0,0 l/m SW 0,00 h 0 W/m 14,9 km/h (3 Bft)
10.12.2010 21:00 -0,1 C 94 % 1030,2 hPa 0,0 l/m W-SW 0,00 h 0 W/m 15,7 km/h (3 Bft)
10.12.2010 22:00 -0,1 C 95 % 1030,1 hPa 0,0 l/m W-SW 0,00 h 0 W/m 12,4 km/h (3 Bft)
10.12.2010 23:00 0,1 C 94 % 1029,3 hPa 0,0 l/m W-SW 0,00 h 0 W/m 14,0 km/h (3 Bft)
11.12.2010 00:00 0,2 C 94 % 1028,3 hPa 0,0 l/m SW 0,00 h 0 W/m 18,2 km/h (3 Bft)
11.12.2010 01:00 0,5 C 94 % 1027,1 hPa 0,0 l/m W-SW 0,00 h 0 W/m 22,6 km/h (4 Bft)
11.12.2010 02:00 0,6 C 94 % 1026,5 hPa 0,0 l/m SW 0,00 h 0 W/m 21,6 km/h (4 Bft)
11.12.2010 03:00 0,7 C 94 % 1025,5 hPa 0,0 l/m S-SW 0,00 h 0 W/m 24,7 km/h (4 Bft)
11.12.2010 04:00 0,7 C 94 % 1024,3 hPa 0,2 l/m W-SW 0,00 h 0 W/m 21,6 km/h (4 Bft)
11.12.2010 05:00 0,8 C 94 % 1024,7 hPa 0,2 l/m W-SW 0,00 h 0 W/m 21,8 km/h (4 Bft)
11.12.2010 06:00 0,8 C 96 % 1024,4 hPa 0,6 l/m W-SW 0,00 h 0 W/m 24,6 km/h (4 Bft)
11.12.2010 07:00 0,8 C 96 % 1023,9 hPa 0,4 l/m SW 0,00 h 0 W/m 31,8 km/h (5 Bft)
11.12.2010 08:00 0,9 C 96 % 1023,9 hPa 0,2 l/m W-SW 0,00 h 11 W/m 29,1 km/h (5 Bft)
11.12.2010 09:00 1,1 C 95 % 1023,7 hPa 0,0 l/m W-SW 0,00 h 34 W/m 27,0 km/h (4 Bft)
11.12.2010 10:00 1,4 C 95 % 1023,7 hPa 0,0 l/m W 0,00 h 44 W/m 24,3 km/h (4 Bft)
11.12.2010 11:00 1,8 C 94 % 1024,1 hPa 0,0 l/m W 0,00 h 53 W/m 21,0 km/h (4 Bft)
11.12.2010 12:00 2,2 C 94 % 1023,5 hPa 0,0 l/m W-SW 0,08 h 149 W/m 16,5 km/h (3 Bft)
11.12.2010 13:00 2,4 C 92 % 1022,8 hPa 0,0 l/m W-SW 0,00 h 86 W/m 20,9 km/h (4 Bft)
11.12.2010 14:00 2,5 C 92 % 1022,1 hPa 0,0 l/m SW 0,00 h 42 W/m 18,2 km/h (3 Bft)
11.12.2010 15:00 2,4 C 91 % 1021,9 hPa 0,0 l/m W-SW 0,00 h 12 W/m 15,3 km/h (3 Bft)
11.12.2010 16:00 2,3 C 91 % 1021,5 hPa 0,0 l/m W-SW 0,00 h 5 W/m 14,6 km/h (3 Bft)
11.12.2010 17:00 2,1 C 93 % 1021,4 hPa 0,0 l/m W-SW 0,00 h 0 W/m 12,5 km/h (3 Bft)
11.12.2010 18:00 1,8 C 94 % 1021,2 hPa 0,0 l/m W-SW 0,00 h 0 W/m 12,6 km/h (3 Bft)
11.12.2010 19:00 1,7 C 95 % 1021,1 hPa 0,0 l/m W-SW 0,00 h 0 W/m 14,0 km/h (3 Bft)
11.12.2010 20:00 1,9 C 94 % 1020,7 hPa 0,0 l/m W-SW 0,00 h 0 W/m 14,9 km/h (3 Bft)
11.12.2010 21:00 1,9 C 92 % 1020,1 hPa 0,0 l/m W-SW 0,00 h 0 W/m 16,1 km/h (3 Bft)
11.12.2010 22:00 2,1 C 89 % 1019,5 hPa 0,0 l/m W-SW 0,00 h 0 W/m 13,3 km/h (3 Bft)
11.12.2010 23:00 1,6 C 92 % 1018,5 hPa 0,0 l/m SW 0,00 h 0 W/m 10,8 km/h (2 Bft)
12.12.2010 00:00 1,3 C 92 % 1017,6 hPa 0,0 l/m W-SW 0,00 h 0 W/m 12,4 km/h (3 Bft)
12.12.2010 01:00 1,4 C 91 % 1017,1 hPa 0,0 l/m W-SW 0,00 h 0 W/m 11,0 km/h (2 Bft)
12.12.2010 02:00 1,5 C 91 % 1017,0 hPa 0,0 l/m W-SW 0,00 h 0 W/m 12,6 km/h (3 Bft)
12.12.2010 03:00 1,5 C 90 % 1016,7 hPa 0,0 l/m W-SW 0,00 h 0 W/m 11,7 km/h (2 Bft)
12.12.2010 04:00 1,3 C 90 % 1015,9 hPa 0,0 l/m W-SW 0,00 h 0 W/m 17,4 km/h (3 Bft)
12.12.2010 05:00 1,3 C 90 % 1015,6 hPa 0,0 l/m SW 0,00 h 0 W/m 18,1 km/h (3 Bft)
12.12.2010 06:00 1,3 C 90 % 1015,1 hPa 0,0 l/m W 0,00 h 0 W/m 18,6 km/h (3 Bft)
12.12.2010 07:00 1,3 C 90 % 1015,1 hPa 0,0 l/m W-SW 0,00 h 0 W/m 15,7 km/h (3 Bft)
12.12.2010 08:00 1,2 C 91 % 1015,0 hPa 0,0 l/m SW 0,00 h 10 W/m 15,7 km/h (3 Bft)
12.12.2010 09:00 1,1 C 92 % 1015,1 hPa 0,0 l/m W-SW 0,00 h 49 W/m 17,6 km/h (3 Bft)
12.12.2010 10:00 1,6 C 91 % 1015,0 hPa 0,0 l/m W 0,33 h 108 W/m 19,7 km/h (3 Bft)
12.12.2010 11:00 2,1 C 88 % 1014,5 hPa 0,0 l/m W 0,08 h 119 W/m 21,0 km/h (4 Bft)
12.12.2010 12:00 2,8 C 85 % 1014,2 hPa 0,0 l/m W-NW 0,33 h 145 W/m 16,8 km/h (3 Bft)
12.12.2010 13:00 1,7 C 88 % 1013,8 hPa 0,4 l/m W-NW 0,58 h 171 W/m 10,5 km/h (2 Bft)
12.12.2010 14:00 2,6 C 83 % 1013,5 hPa 0,0 l/m W-NW 0,33 h 117 W/m 10,9 km/h (2 Bft)
12.12.2010 15:00 2,3 C 82 % 1013,7 hPa 0,0 l/m W 0,00 h 26 W/m 10,6 km/h (2 Bft)
12.12.2010 16:00 1,8 C 86 % 1013,9 hPa 0,0 l/m W 0,00 h 7 W/m 10,5 km/h (2 Bft)
12.12.2010 17:00 1,3 C 89 % 1013,9 hPa 0,0 l/m W 0,00 h 0 W/m 11,2 km/h (2 Bft)
12.12.2010 18:00 1,2 C 90 % 1014,0 hPa 0,0 l/m W-NW 0,00 h 0 W/m 12,1 km/h (2 Bft)
12.12.2010 19:00 1,1 C 91 % 1014,1 hPa 0,0 l/m W 0,00 h 0 W/m 10,3 km/h (2 Bft)
12.12.2010 20:00 0,9 C 93 % 1014,1 hPa 0,0 l/m W-NW 0,00 h 0 W/m 11,1 km/h (2 Bft)
12.12.2010 21:00 0,9 C 91 % 1014,4 hPa 0,0 l/m W-NW 0,00 h 0 W/m 7,6 km/h (2 Bft)
12.12.2010 22:00 0,7 C 91 % 1014,4 hPa 0,0 l/m W-NW 0,00 h 0 W/m 5,7 km/h (1 Bft)
12.12.2010 23:00 0,7 C 91 % 1014,5 hPa 0,0 l/m NW 0,00 h 0 W/m 5,1 km/h (1 Bft)
Min-Datum _ 09.12.10 12.12.10 06.12.10 - - - - 06.12.10
_ Min-Zeit 08:30 12:15 14:40 - - - - 03:20
Minimum _ -2,7 C 81 % 996,7 hPa - - - - 0,0 km/h (0 Bft)
Max-Datum _ 08.12.10 07.12.10 10.12.10 06.12.10 - 07.12.10 12.12.10 08.12.10
_ Max-Zeit 22:10 01:25 13:55 19:00 - 08:10 12:10 23:00
Maximum _ 10,2 C 100 % 1031,6 hPa 5,4 l/m - 0,08 h 401 W/m 45,1 km/h
W-NW (6 Bft)
Durchschnitt _ 2,1 C 94 % 1012,7 hPa #87,8 l/m W-SW #2:55 h 56 W/m 12,3 km/h (3 Bft)